Location: Crayja
(6.2254°N, 10.6273°W)
Time: 13:46:14
(UTC+00:00)

Cosmos 2084 - Pass Details

Date: 17 February 2020
Orbit: 567 x 615 km, 62.8° (Epoch: 29 March)

Event Time Altitude Azimuth Distance (km) Brightness Sun altitude
Exits shadow 05:13:54 58° 54° (NE) 713 3.9 -26.3°
Drops below altitude 10° 05:17:35 10° 29° (NNE) 1,961 6.3 -25.4°
Sets 05:19:52 0° 28° (NNE) 2,867 7.2 -24.9°
